sat.trackr.live / text

‹ back to catalog

HULIANWANG DIGUI-156

NORAD 68130 · 2026-047B

PAYLOAD ACTIVE UNKNOWN

§ Identity

Operator
Country
PRC
Launch date
2026-03-12
Launch site
WSC
Launch vehicle
Mass (kg)
RCS (m²)

External: N2YO · Heavens-Above · Gunter

§ Orbital elements

Epoch: 2026-09-19T20:55:22.815840Z

Period
108.33 min
Inclination
50.0024°
Eccentricity
0.0001264
Mean motion
13.29319798 rev/d
Perigee alt
1,148.4 km
Apogee alt
1,150.3 km
Semi-major
7,527.5 km
B*
2.1577e-5
RAAN
76.7178°
Arg perigee
91.2709°
Mean anomaly
268.8308°
Rev number
2,565

§ Raw data

HULIANWANG DIGUI-1561 68130U 26047B   26262.87179185 -.00000114  00000+0  21577-4 0  99932 68130  50.0024  76.7178 0001264  91.2709 268.8308 13.29319798 25653

JSON: /api/v1/satellites/68130 · /tle

For live sub-satellite position, see the globe view (requires WebGL).

§ Visibility from observer

Set your observer location to see the next 7 days of passes ≥ 10°. The values pass through the URL so the page stays shareable.

No JS? Fill the form by hand. The geolocation button needs JavaScript.